Location: Luxembourg
(49.6117°N, 6.1300°E)
Time: 05:28:35
(UTC+01:00)

Envisat - Pass Details

Date: 27 January 2019
Orbit: 764 x 766 km, 98.2° (Epoch: 16 February)

Event Time Altitude Azimuth Distance (km) Brightness Sun altitude
Rises 06:44:32 0° 30° (NNE) 3,243 6.5 -14.6°
Reaches altitude 10° 06:48:06 10° 56° (NE) 2,310 6.1 -14.0°
Maximum altitude 06:50:38 14° 86° (E) 2,054 6.4 -13.6°
Drops below altitude 10° 06:53:10 10° 116° (ESE) 2,301 6.8 -13.2°
Sets 06:56:41 0° 142° (SE) 3,220 7.1 -12.7°
